Wind_Speed
8 9 9 8 8 8 8 8 8 8 8 8 9 8 9 11 13 12 11 14 12 12 12 12 12 12 13 14 14 12 10 10 10
10 10 9 9 9 9 9 9 9 9 10 10 10 11 11 10 10 13 16 16 17 17 15 15 15 15 15 16 16 15 14 13 12
11 11 10 10 9 9 10 9 10 10 11 11 12 13 12 12 12 11 15 18 16 18 18 19 17 17 17 18 17 17 17 16 15
14 13 13 12 11 11 10 10 11 11 11 12 13 14 15 15 15 14 15 16 17 17 19 21 20 20 21 22 22 21 20 19 17
13 12 16 14 13 13 12 12 12 11 9 11 12 13 12 13 13 11 14 16 20 21 19 20 21 22 24 25 26 26 25 23 22
15 11 15 16 16 15 16 15 14 12 11 12 12 12 12 13 12 13 12 15 12 13 13 16 21 23 26 28 29 28 29 28 26
13 13 13 13 15 15 16 15 13 13 12 11 12 13 13 12 11 12 12 16 16 15 17 21 24 22 22 25 31 32 30 31 30
11 11 12 12 12 12 13 13 12 13 13 13 12 12 12 12 12 12 13 17 17 17 18 19 21 25 27 28 24 30 33 32 33
10 10 11 11 13 13 13 13 14 13 13 13 14 12 11 12 13 14 15 16 19 19 19 20 21 23 24 26 28 29 30 34 35
10 9 11 10 12 12 14 15 16 16 17 17 18 17 16 14 14 14 15 15 17 18 19 21 22 23 24 26 26 28 29 31 37
11 11 10 11 13 12 14 15 16 17 16 16 16 16 16 14 12 13 14 16 18 19 18 20 22 22 23 25 27 28 29 30 33
10 11 12 12 14 13 13 14 16 17 17 17 17 17 15 13 9 11 14 18 18 20 24 21 21 21 23 24 25 27 29 31 30
11 11 11 13 14 13 14 15 18 18 19 19 20 20 15 12 8 10 12 17 19 21 22 22 22 22 23 24 25 26 24 26 26
11 11 12 13 13 13 14 15 17 19 21 19 23 19 18 8 6 5 14 21 18 24 24 22 21 18 22 23 23 24 25 25 26
11 12 11 13 13 13 14 15 16 17 19 21 20 23 7 3 7 8 12 15 19 22 23 23 20 19 22 18 21 26 28 27 24
13 12 12 12 13 14 14 14 16 18 19 17 23 15 9 4 8 8 15 14 17 17 20 23 23 21 16 15 20 25 24 21 20
14 13 12 12 13 14 13 13 14 16 16 13 11 4 7 10 12 12 17 16 17 21 18 20 19 20 16 15 16 15 5 2 8
14 13 13 12 12 13 13 12 11 11 15 13 6 3 3 13 7 18 21 20 22 19 20 20 20 18 19 21 20 19 8 6 4
14 13 13 12 12 13 13 12 13 12 13 13 7 10 11 4 5 6 17 22 22 20 19 22 17 17 17 20 20 19 25 5 4
12 14 15 13 13 13 14 14 13 12 13 12 14 14 13 16 5 5 10 19 23 20 22 17 15 15 17 15 19 21 22 25 26
Wind_Direction
353 348 344 343 340 338 337 333 329 309 302 292 285 295 280 269 264 268 271 267 265 253 251 254 236 235 233 230 222 220 222 225 218
358 352 355 350 345 340 332 326 322 315 304 297 287 279 276 274 265 259 265 264 266 243 246 253 239 232 235 235 235 232 230 224 222
359 351 353 352 349 344 338 331 324 312 304 298 290 284 282 276 266 264 274 267 267 261 240 252 245 239 241 241 236 237 230 225 225
3 359 346 340 341 341 337 332 329 322 318 313 304 294 286 281 278 270 259 274 268 265 245 244 249 240 240 238 242 241 237 230 226
354 335 350 353 355 353 351 345 343 345 354 353 344 336 314 294 286 289 290 284 269 269 268 250 245 245 244 244 242 242 239 237 230
352 342 358 358 359 358 360 6 6 4 1 349 340 344 351 339 316 296 299 304 292 279 286 280 270 262 256 251 248 246 244 238 232
346 349 353 357 350 356 352 350 356 352 344 342 342 334 324 316 317 313 307 296 305 304 296 286 274 282 282 271 258 250 246 242 234
347 347 343 347 350 347 344 343 344 340 337 333 323 321 321 317 314 313 307 310 306 304 300 295 289 283 279 276 279 264 248 243 238
342 347 345 343 340 347 341 342 335 334 326 324 326 320 323 321 318 314 309 308 307 304 298 293 289 285 282 278 273 272 265 245 239
348 346 343 342 335 340 345 341 340 339 337 340 333 332 330 322 316 316 314 314 311 307 301 296 290 286 282 280 278 272 271 256 240
344 347 343 340 331 345 344 340 339 336 336 332 331 328 323 318 317 319 321 318 318 317 312 307 295 291 289 283 277 273 265 264 260
344 341 341 331 339 341 343 341 339 337 336 331 327 328 324 317 314 325 333 340 333 323 318 312 305 299 295 291 284 274 270 261 265
338 336 333 331 338 341 341 341 339 337 336 330 329 327 325 315 311 332 343 336 335 334 332 321 319 304 298 292 289 278 266 263 273
329 332 331 327 337 341 339 337 337 335 335 334 326 326 313 315 308 341 348 5 1 355 347 329 316 309 297 292 288 279 266 266 263
324 327 326 328 330 334 335 334 335 335 336 331 329 323 322 306 338 343 349 9 13 13 9 3 351 329 303 281 295 281 265 262 247
322 329 323 324 328 329 332 335 337 337 347 337 339 344 330 123 18 353 354 353 5 10 0 6 17 12 360 334 319 295 264 253 221
330 325 327 326 324 325 330 333 336 337 345 335 334 349 359 3 355 10 8 351 353 353 3 8 9 16 9 4 347 360 63 41 229
339 334 332 330 325 321 321 326 331 333 334 345 327 346 335 335 312 339 348 355 354 344 351 357 0 5 358 11 9 6 300 297 253
345 345 340 329 327 322 320 318 319 319 317 333 335 320 304 309 321 316 330 339 338 344 344 347 351 352 0 0 10 6 29 17 28
353 341 341 339 333 326 320 319 317 309 308 310 316 319 312 295 286 311 330 333 332 338 327 330 351 352 354 5 8 14 19 23 43
Height
809 808 807 806 805 804 804 803 803 802 801 801 801 801 801 801 801 801 802 803 803 803 803 804 805 806 806 807 807 809 810 810 811
809 807 806 805 804 803 802 801 801 800 799 799 799 798 798 798 798 799 800 800 801 801 801 801 802 803 804 804 805 806 807 809 810
809 808 806 805 803 801 800 799 798 798 797 796 796 796 796 796 796 796 797 797 797 798 798 798 799 801 802 802 803 804 804 806 807
809 809 807 805 803 801 799 798 796 796 795 794 794 793 792 792 793 793 794 795 794 794 794 795 795 796 797 798 799 800 801 802 803
810 809 808 806 804 802 799 798 796 795 794 793 793 791 789 789 790 790 791 792 791 792 791 792 792 793 793 794 794 795 796 798 799
811 808 807 807 805 803 801 798 797 795 794 793 792 791 789 789 789 789 789 788 788 788 788 789 789 789 789 789 789 790 791 792 794
811 810 808 805 805 804 801 799 798 796 794 792 791 790 789 788 788 788 787 786 786 786 786 784 784 784 783 784 784 785 786 787 789
811 810 809 807 804 804 803 800 798 796 794 792 791 789 787 787 786 786 785 784 784 783 782 780 779 778 778 779 779 778 780 781 783
810 809 809 807 805 803 802 800 798 795 793 791 789 788 786 786 785 784 783 783 781 780 778 777 776 774 774 773 773 773 773 774 777
810 810 809 807 805 803 801 800 798 795 792 790 788 787 786 785 784 783 782 780 779 777 775 773 772 770 768 767 766 766 767 768 769
811 810 808 807 804 802 800 799 797 794 792 789 788 786 785 784 782 781 780 778 776 774 772 770 767 765 764 762 761 760 760 761 761
811 810 808 806 803 802 799 798 796 793 791 788 787 785 783 782 781 780 778 776 773 771 769 766 764 762 760 758 755 754 753 753 753
811 810 808 806 803 801 799 797 795 793 790 787 785 783 781 781 780 779 776 774 771 768 765 763 760 758 755 752 750 748 746 745 747
811 809 808 806 804 801 799 797 795 792 789 787 783 781 779 779 779 777 776 774 772 768 764 760 756 751 746 745 744 743 741 739 739
810 808 807 806 804 802 800 798 795 793 789 786 782 778 776 778 777 776 775 774 771 768 764 760 754 747 741 739 737 736 734 731 731
810 808 806 804 803 801 800 798 795 792 789 785 781 775 775 775 775 774 774 773 771 768 766 764 755 749 742 739 736 730 726 725 727
809 807 804 803 801 800 800 798 796 794 792 789 784 783 776 774 775 774 774 773 770 767 766 763 757 753 746 742 737 730 727 726 726
808 806 804 802 801 800 799 798 796 795 793 792 792 788 786 783 774 773 773 773 771 767 765 761 758 753 750 744 739 734 730 728 727
807 805 803 802 800 799 798 797 796 795 794 792 791 790 789 786 778 774 774 772 771 768 764 761 758 755 751 748 743 734 728 728 727
807 805 803 801 800 799 797 796 795 794 794 793 791 790 789 786 783 777 775 773 771 767 763 761 758 756 753 749 746 740 733 730 729